Location: Hebron
(33.0265°N, 96.8636°W)
Time: 21:43:54
(UTC+00:00)

Okean 1 - Pass Details

Date: 11 July 2022
Orbit: 532 x 553 km, 82.5° (Epoch: 15 August)

Event Time Altitude Azimuth Distance (km) Brightness Sun altitude
Rises 08:05:29 0° 9° (N) 2,680 7.9 -30.6°
Reaches altitude 10° 08:07:58 10° 24° (NNE) 1,785 6.8 -30.4°
Enters shadow 08:10:24 22° 60° (ENE) 1,193 5.5 -30.2°
